Details From SBBR - Brasilia Presidente Juscelino Kubitsch
To SBGO - Santo Genoveva
Flight Number -
Tags generated
Created
Modified
Stats Distance 88 nm / 163 km
Max Altitude 5,500 ft / 1,676 m
Waypoints 4
Social Downloads 0
Likes 0
Share VATSIM

Download

Looking for another format? Having issues loading an existing format? Contact us
Advertisement - Login to hide

Notes

Basic altitude profile: - Ascent Rate: 1000ft/min - Ascent Speed: 210kts - Cruise Altitude: 90ft - Cruise Speed: 240kts - Descent Rate: 1000ft/min - Descent Speed: 210kts Options: - Use NATs: yes - Use PACOTS: yes - Use low airways: yes - Use high airways: yes

Route

SBBR GOMAL W10 GOI SBGO

ID Type Via Altitude Latitude Longitude Leg Dist Tot Dist Heading (true) Name
O SBBR APT - 0 ft / 0 m -15.87110˚ -47.91863˚ - 0 nm - Brasilia Presidente Juscelino Kubitsch
GOMAL FIX - 3,200 ft / 975 m -16.49500˚ -48.99767˚ 72 nm 72 nm 239° / 239° -
GOI VOR W10 (AWY-LO) 5,500 ft / 1,676 m -16.63243˚ -49.21536˚ 15 nm 87 nm 237° / 237° GOIANIA VOR-DME
O SBGO APT - 0 ft / 0 m -16.63203˚ -49.22069˚ 0 nm 87 nm 274° / 274° Santo Genoveva

Altitude Profile

Advertisement - Login to hide

SBBR

Details ICAO SBBR (BSB)
Name Brasilia Presidente Juscelino Kubitsch
Region Brazil
Timezone America/Sao_Paulo (UTC-2.0)
Stats Elevation 3,479 ft / 1,060 m (AMSL)
Location -15.871101° -47.918626°
Runways 2
Magnetic Variation 21.549° W

METAR

SBBR 140800Z 05004KT 010V070 9999 -RA FEW002 BKN005 FEW025TCU 18/18 Q1018 RERA

Decode

TAF

TAF SBBR 140200Z 1406/1506 07007KT 9999 SCT012 TN19/1409Z TX25/1417Z PROB30 1406/1412 BKN003 FM141100 06012KT 9999 SCT020 BKN025 TEMPO 1419/1423 VRB10KT 9000 SHRA SCT030 FEW040TCU RMK PDF

Decode

Departure Runways

ID Width Length Bearing (true) Bearing (mag) Surface Threshold Offset Overrun Length
11L 148 ft / 45 m 10,493 ft / 3,198 m 86.35° 107.90° Asphalt 0 ft / 0 m 200 ft / 61 m
11R 148 ft / 45 m 10,839 ft / 3,304 m 86.00° 107.55° Asphalt 2,635 ft / 803 m 200 ft / 61 m
29L 148 ft / 45 m 10,839 ft / 3,304 m 265.99° 287.54° Asphalt 0 ft / 0 m 200 ft / 61 m
29R 148 ft / 45 m 10,493 ft / 3,198 m 266.34° 287.89° Asphalt 0 ft / 0 m 200 ft / 61 m

SBGO

Details ICAO SBGO (GYN)
Name Santo Genoveva
Region Brazil
Timezone America/Sao_Paulo (UTC-2.0)
Stats Elevation 2,450 ft / 747 m (AMSL)
Location -16.632032° -49.220686°
Runways 1
Magnetic Variation 20.988° W

METAR

SBGO 140800Z 13004KT 9999 FEW012 SCT070 21/20 Q1016

Decode

TAF

TAF SBGO 140200Z 1406/1506 05008KT 9999 SCT030 TN20/1409Z TX26/1418Z PROB40 TEMPO 1406/1408 9000 RA SCT020 FM141200 05009KT 9999 SCT020 TEMPO 1419/1422 34010KT 9999 SHRA SCT025 FEW030TCU RMK PDF

Decode

Destination Runways

ID Width Length Bearing (true) Bearing (mag) Surface Threshold Offset Overrun Length
14 148 ft / 45 m 8,208 ft / 2,502 m 120.42° 141.41° Asphalt 0 ft / 0 m 0 ft / 0 m
32 148 ft / 45 m 8,208 ft / 2,502 m 300.41° 321.40° Asphalt 980 ft / 299 m 0 ft / 0 m

Popular Alternatives